EW6625 Weather Reports


time (UTC)temp
C
wind
direction
speed
KPH
gust
KPH
rain 1hr
cm
rain 24hr
cm
rain mn
cm
humidity
%
barometer
mb
20260506140204 13 250 6.4 16.1 0.30 0.36 0.36 95 1001.3
20260506135947 13 240 6.4 16.1 0.30 0.33 0.33 95 1001.4
20260506135201 13 173 8.0 16.1 0.30 0.30 0.30 94 1001.4
20260506134701 13 226 8.0 16.1 0.28 0.28 0.28 94 1001.4
20260506134202 13 216 9.7 16.1 0.25 0.25 0.25 93 1001.5
20260506133700 13 233 8.0 14.5 0.23 0.23 0.23 93 1001.5
20260506133201 13 186 9.7 17.7 0.20 0.20 0.20 93 1001.6
20260506132701 13 197 9.7 20.9 0.18 0.18 0.18 92 1001.7
20260506132319 13 203 11.3 20.9 0.13 0.13 0.10 91 1001.8
20260506132251 13 236 9.7 20.9 0.15 0.15 0.15 92 1001.7
20260506131203 13 239 9.7 19.3 0.10 0.10 0.10 90 1001.8
20260506130703 13 229 8.0 17.7 0.08 0.08 0.08 89 1001.8
20260506130202 14 202 8.0 16.1 0.05 0.05 0.03 87 1001.8
20260506125702 14 226 8.0 14.5 0.03 0.03 0.03 86 1001.7
20260506125204 14 229 8.0 14.5 0.00 0.00 0.00 84 1001.5
20260506124703 15 193 8.0 14.5 0.00 0.00 0.00 82 1001.4
20260506124202 15 216 6.4 14.5 0.00 0.00 0.00 80 1001.3
20260506123702 15 220 8.0 12.9 0.00 0.00 0.00 79 1001.2
20260506123203 15 213 8.0 16.1 0.00 0.00 0.00 78 1001.2
20260506122703 15 233 6.4 16.1 0.00 0.00 0.00 77 1001.2
20260506122202 15 221 6.4 14.5 0.00 0.00 0.00 76 1001.3
20260506121703 15 204 8.0 16.1 0.00 0.00 0.00 75 1001.3
20260506121202 15 194 8.0 16.1 0.00 0.00 0.00 74 1001.3
20260506120703 15 206 6.4 12.9 0.00 0.00 0.00 73 1001.4
20260506120202 15 210 4.8 12.9 0.00 0.00 0.00 72 1001.5
20260506115704 15 219 4.8 12.9 0.00 0.00 0.00 72 1001.4
20260506115456 15 210 6.4 12.9 0.00 0.00 0.00 72 1001.4
20260506114704 15 192 8.0 12.9 0.00 0.00 0.00 72 1001.4
20260506114204 15 165 8.0 16.1 0.00 0.00 0.00 71 1001.4
20260506113704 15 220 8.0 17.7 0.00 0.00 0.00 72 1001.4
20260506113204 15 227 6.4 17.7 0.00 0.00 0.00 71 1001.4
20260506112705 15 214 6.4 14.5 0.00 0.00 0.00 71 1001.3
20260506112500 15 178 6.4 12.9 0.00 0.00 0.00 71 1001.4
20260506111703 15 170 4.8 11.3 0.00 0.00 0.00 71 1001.4
20260506111205 15 202 4.8 9.7 0.00 0.00 0.00 70 1001.5
20260506110704 15 203 4.8 9.7 0.00 0.00 0.00 70 1001.4
20260506110203 15 210 4.8 8.0 0.00 0.00 0.00 70 1001.4
20260506105702 15 223 4.8 9.7 0.00 0.00 0.00 70 1001.4
20260506105202 15 240 6.4 11.3 0.00 0.00 0.00 70 1001.3
20260506104702 15 219 4.8 11.3 0.00 0.00 0.00 70 1001.2
20260506104202 15 253 4.8 12.9 0.00 0.00 0.00 70 1001.0
20260506104000 15 238 4.8 12.9 0.00 0.00 0.00 69 1001.1
20260506103500 15 223 3.2 8.0 0.00 0.00 0.00 70 1001.0
20260506102703 15 209 4.8 11.3 0.00 0.00 0.00 69 1001.1
20260506102202 15 188 3.2 11.3 0.00 0.00 0.00 68 1001.1
20260506101703 15 229 3.2 8.0 0.00 0.00 0.00 68 1001.0
20260506101202 15 213 4.8 9.7 0.00 0.00 0.00 68 1000.9
20260506100959 15 220 4.8 11.3 0.00 0.00 0.00 68 1001.0
20260506100203 15 214 4.8 11.3 0.00 0.00 0.00 67 1001.1
20260506095702 15 213 3.2 9.7 0.00 0.00 0.00 67 1001.2
20260506095203 15 219 3.2 8.0 0.00 0.00 0.00 66 1001.2
20260506094703 15 233 3.2 8.0 0.00 0.00 0.00 66 1001.2
20260506094205 15 150 3.2 8.0 0.00 0.00 0.00 66 1001.1
20260506093701 15 227 3.2 8.0 0.00 0.00 0.00 65 1001.0
20260506093201 15 221 3.2 8.0 0.00 0.00 0.00 65 1000.9
20260506092701 15 227 3.2 8.0 0.00 0.00 0.00 65 1000.9
20260506092201 15 223 3.2 11.3 0.00 0.00 0.00 65 1000.9
20260506091956 15 199 4.8 11.3 0.00 0.00 0.00 64 1001.0
20260506091200 15 233 4.8 9.7 0.00 0.00 0.00 64 1001.0
20260506090701 15 236 4.8 9.7 0.00 0.00 0.00 64 1001.0
20260506090609 15 222 6.4 11.3 0.00 0.00 0.00 63 1001.2
20260506090248 15 238 6.4 9.7 0.00 0.00 0.00 64 1001.1
20260506085506 15 230 4.8 11.3 0.00 0.00 0.00 64 1001.3
20260506084703 15 202 4.8 11.3 0.00 0.00 0.00 65 1001.3
20260506084201 15 231 4.8 12.9 0.00 0.00 0.00 65 1001.5
20260506083701 15 231 6.4 12.9 0.00 0.00 0.00 65 1001.4
20260506083203 15 233 6.4 11.3 0.00 0.00 0.00 65 1001.4
20260506082704 15 227 4.8 9.7 0.00 0.00 0.00 66 1001.4
20260506082204 15 195 3.2 8.0 0.00 0.00 0.00 65 1001.1
20260506081704 15 215 3.2 6.4 0.00 0.00 0.00 67 1001.2
20260506081500 15 231 3.2 6.4 0.00 0.00 0.00 67 1001.1
20260506080701 15 262 3.2 6.4 0.00 0.00 0.00 66 1001.1
20260506080201 15 222 3.2 6.4 0.00 0.00 0.00 66 1001.0
20260506073201 15 300 3.2 6.4 0.00 0.00 0.00 68 1001.4
20260506072701 15 288 3.2 8.0 0.00 0.00 0.00 66 1001.4
20260506072201 15 201 3.2 8.0 0.00 0.00 0.00 67 1001.4
20260506071701 15 269 3.2 8.0 0.00 0.00 0.00 67 1001.5
20260506071200 15 226 3.2 8.0 0.00 0.00 0.00 67 1001.5
20260506070700 15 233 3.2 6.4 0.00 0.00 0.00 68 1001.6
20260506070203 14 220 3.2 6.4 0.00 0.00 0.00 68 1001.6
20260506062200 15 223 3.2 6.4 0.00 0.00 0.00 69 1001.9
20260506061701 14 216 3.2 8.0 0.00 0.00 0.00 68 1001.9
20260506061201 15 227 3.2 8.0 0.00 0.00 0.00 69 1002.0
20260506060701 15 233 3.2 6.4 0.00 0.00 0.00 69 1001.9
20260506060200 15 213 3.2 6.4 0.00 0.00 0.00 69 1002.0
20260506051205 14 253 3.2 4.8 0.00 0.00 0.00 71 1002.5
20260506050705 14 269 3.2 4.8 0.00 0.00 0.00 72 1002.3
20260506050205 14 286 3.2 4.8 0.00 0.00 0.00 72 1002.3
20260506044701 15 250 1.6 3.2 0.00 0.00 0.00 71 1002.2
20260506044202 15 240 3.2 6.4 0.00 0.00 0.00 71 1002.2
20260506043701 15 245 3.2 6.4 0.00 0.00 0.00 71 1002.5
20260506043202 15 269 3.2 4.8 0.00 0.00 0.00 71 1002.5
20260506042701 15 283 3.2 4.8 0.00 0.00 0.00 70 1002.5
20260506042201 15 269 3.2 6.4 0.00 0.00 0.00 70 1002.6
20260506041701 15 269 3.2 6.4 0.00 0.00 0.00 69 1002.8
20260506041458 15 283 3.2 4.8 0.00 0.00 0.00 69 1002.6
20260506040809 16 279 1.6 3.2 0.00 0.00 0.00 68 1002.8
20260506040743 15 276 3.2 4.8 0.00 0.00 0.00 68 1002.7
20260506035950 16 269 1.6 4.8 0.00 0.00 0.00 67 1002.7
20260506035202 16 233 3.2 4.8 0.00 0.00 0.00 66 1002.7
20260506034700 16 253 3.2 4.8 0.00 0.00 0.00 66 1002.9
20260506034201 16 277 3.2 8.0 0.00 0.00 0.00 66 1002.8
20260506033700 16 258 3.2 8.0 0.00 0.00 0.00 65 1002.7
20260506033210 16 240 3.2 8.0 0.00 0.00 0.00 64 1002.6
20260506033202 16 257 3.2 8.0 0.00 0.00 0.00 65 1002.8
20260506033157 17 201 3.2 6.4 0.00 0.00 0.00 64 1002.6
20260506033150 16 209 3.2 8.0 0.00 0.00 0.00 64 1002.8
20260506031202 17 240 3.2 6.4 0.00 0.00 0.00 63 1002.7
20260506030702 17 257 3.2 6.4 0.00 0.00 0.00 62 1002.7
20260506030157 17 248 3.2 6.4 0.00 0.00 0.00 62 1002.6
20260506025652 17 245 3.2 6.4 0.00 0.00 0.00 61 1002.6
20260506025145 17 252 3.2 6.4 0.00 0.00 0.00 61 1002.6
20260506024638 18 214 4.8 9.7 0.00 0.00 0.00 60 1002.6
20260506024133 18 238 4.8 9.7 0.00 0.00 0.00 59 1002.6
20260506023629 18 231 3.2 8.0 0.00 0.00 0.00 59 1002.7
20260506023130 18 201 3.2 4.8 0.00 0.00 0.00 59 1002.7
20260506022630 18 236 3.2 6.4 0.00 0.00 0.00 58 1002.7
20260506022130 18 269 4.8 9.7 0.00 0.00 0.00 58 1002.7
20260506021630 19 253 4.8 9.7 0.00 0.00 0.00 57 1002.6
20260506021431 19 233 6.4 11.3 0.00 0.00 0.00 56 1002.7
20260506020630 19 213 6.4 11.3 0.00 0.00 0.00 56 1002.7
20260506020131 19 206 3.2 9.7 0.00 0.00 0.00 56 1002.6
20260506015927 19 223 3.2 6.4 0.00 0.00 0.00 55 1002.7
20260506015132 19 208 4.8 8.0 0.00 0.00 0.00 55 1002.6
20260506014629 19 245 3.2 8.0 0.00 0.00 0.00 55 1002.7
20260506014245 20 213 4.8 9.7 0.00 0.00 0.00 54 1002.7
20260506014134 19 220 3.2 6.4 0.00 0.00 0.00 54 1002.6
20260506014006 20 213 4.8 9.7 0.00 0.00 0.00 54 1002.7
20260506013130 20 221 4.8 9.7 0.00 0.00 0.00 54 1002.5
20260506012629 19 170 4.8 11.3 0.00 0.00 0.00 54 1002.3
20260506012130 19 227 4.8 11.3 0.00 0.00 0.00 54 1002.2
20260506011630 20 269 4.8 12.9 0.00 0.00 0.00 54 1002.1
20260506011127 20 226 4.8 12.9 0.00 0.00 0.00 54 1002.2
20260506010621 20 286 6.4 12.9 0.00 0.00 0.00 54 1002.1
20260506010114 20 238 6.4 12.9 0.00 0.00 0.00 54 1002.1
20260506005909 20 231 4.8 11.3 0.00 0.00 0.00 54 1002.0
20260506005109 20 262 4.8 9.7 0.00 0.00 0.00 54 1001.9
20260506004910 20 243 4.8 9.7 0.00 0.00 0.00 53 1002.0
20260506004109 20 226 4.8 9.7 0.00 0.00 0.00 54 1002.0
20260506003610 20 240 4.8 14.5 0.00 0.00 0.00 54 1002.0
20260506003110 20 227 6.4 14.5 0.00 0.00 0.00 53 1002.0
20260506002610 20 240 4.8 11.3 0.00 0.00 0.00 53 1002.1
20260506002110 20 226 6.4 11.3 0.00 0.00 0.00 53 1002.0
20260506001610 20 233 6.4 11.3 0.00 0.00 0.00 53 1001.9
20260506001111 20 245 4.8 9.7 0.00 0.00 0.00 53 1002.0
20260506000611 20 321 4.8 16.1 0.00 0.00 0.00 52 1001.9
20260506000110 20 222 6.4 16.1 0.00 0.00 0.00 52 1001.9
20260505235908 20 262 4.8 12.9 0.00 0.00 0.00 52 1001.9
20260505235111 20 226 4.8 11.3 0.00 0.00 0.00 52 1001.9
20260505234613 20 220 4.8 11.3 0.00 0.00 0.00 51 1001.9
20260505234109 20 236 6.4 11.3 0.00 0.00 0.00 52 1001.8
20260505233612 21 243 6.4 16.1 0.00 0.00 0.00 51 1001.7
20260505233107 21 216 6.4 16.1 0.00 0.00 0.00 50 1001.8
20260505232604 21 238 4.8 11.3 0.00 0.00 0.00 51 1001.7
20260505232104 21 197 4.8 11.3 0.00 0.00 0.00 50 1001.6
20260505231604 21 250 4.8 11.3 0.00 0.00 0.00 50 1001.7
20260505231103 21 274 6.4 11.3 0.00 0.00 0.00 49 1001.7
20260505230605 21 259 6.4 12.9 0.00 0.00 0.00 49 1001.6
20260505230112 21 293 4.8 12.9 0.00 0.00 0.00 48 1001.6
20260505225604 21 274 4.8 11.3 0.00 0.00 0.00 48 1001.5
20260505225102 21 217 6.4 12.9 0.00 0.00 0.00 48 1001.6
20260505224601 21 223 8.0 12.9 0.00 0.00 0.00 49 1001.5
20260505224102 21 206 9.7 20.9 0.00 0.00 0.00 47 1001.3
20260505223601 21 226 9.7 20.9 0.00 0.00 0.00 47 1001.2
20260505223102 22 233 9.7 20.9 0.00 0.00 0.00 46 1001.1
20260505222602 22 200 12.9 24.1 0.00 0.00 0.00 46 1001.2
20260505222400 22 224 12.9 25.7 0.00 0.00 0.00 46 1001.1
20260505221601 22 248 14.5 37.0 0.00 0.00 0.00 46 1001.1
20260505221102 22 234 14.5 37.0 0.00 0.00 0.00 46 1001.1
20260505220602 22 240 11.3 32.2 0.00 0.00 0.00 46 1001.1
20260505220404 22 200 9.7 19.3 0.00 0.00 0.00 46 1001.1
20260505215603 22 221 9.7 19.3 0.00 0.00 0.00 46 1000.9
20260505215103 22 223 9.7 19.3 0.00 0.00 0.00 46 1000.8
20260505214603 22 223 12.9 24.1 0.00 0.00 0.00 45 1000.9
20260505214108 23 201 12.9 25.7 0.00 0.00 0.00 45 1000.9
20260505213601 23 220 11.3 25.7 0.00 0.00 0.00 44 1000.9
20260505213417 23 226 14.5 33.8 0.00 0.00 0.00 45 1000.9
20260505212601 23 231 17.7 37.0 0.00 0.00 0.00 44 1001.0
20260505212104 23 257 17.7 37.0 0.00 0.00 0.00 43 1001.0
20260505211601 23 238 17.7 40.2 0.00 0.00 0.00 42 1000.9
20260505211102 24 223 17.7 40.2 0.00 0.00 0.00 43 1000.8
20260505210601 24 217 16.1 33.8 0.00 0.00 0.00 40 1000.7
20260505210104 24 229 16.1 33.8 0.00 0.00 0.00 40 1000.5
20260505205603 24 241 20.9 53.1 0.00 0.00 0.00 40 1000.3
20260505205104 23 190 24.1 53.1 0.00 0.00 0.00 40 1000.1
20260505204602 23 227 20.9 56.3 0.00 0.00 0.00 40 1000.2
20260505204103 23 191 19.3 56.3 0.00 0.00 0.00 41 1000.3
20260505203605 23 210 17.7 38.6 0.00 0.00 0.00 41 1000.3
20260505203102 22 236 19.3 38.6 0.00 0.00 0.00 40 1000.3
20260505202851 23 219 16.1 37.0 0.00 0.00 0.00 40 1000.3
20260505202102 23 182 14.5 37.0 0.00 0.00 0.00 40 1000.5
20260505201604 23 224 16.1 30.6 0.00 0.00 0.00 40 1000.5
20260505201102 23 231 17.7 37.0 0.00 0.00 0.00 39 1000.3
20260505200601 23 197 19.3 38.6 0.00 0.00 0.00 39 1000.2
20260505195601 23 225 16.1 45.1 0.00 0.00 0.00 38 1000.2
20260505195103 24 243 17.7 45.1 0.00 0.00 0.00 37 1000.3
20260505194602 25 89 20.9 43.5 0.00 0.00 0.00 37 1000.1
20260505194104 24 208 24.1 46.7 0.00 0.00 0.00 37 1000.2
20260505193602 24 215 27.4 57.9 0.00 0.00 0.00 37 1000.3
20260505193102 25 252 19.3 57.9 0.00 0.00 0.00 36 1000.3
20260505192605 25 218 19.3 48.3 0.00 0.00 0.00 34 1000.3
20260505192106 -17 0.0 0.0 0.00 0.00 0.00
20260505190028 23 262 24.1 66.0 0.00 0.00 0.00 38 1000.8
20260505185204 24 212 20.9 66.0 0.00 0.00 0.00 36 1000.8
20260505184702 24 240 19.3 46.7 0.00 0.00 0.00 38 1000.9
20260505184202 24 219 17.7 38.6 0.00 0.00 0.00 39 1000.9
20260505183959 24 152 19.3 43.5 0.00 0.00 0.00 41 1001.0
20260505183202 23 259 20.9 46.7 0.00 0.00 0.00 40 1001.2
20260505182958 23 233 17.7 46.7 0.00 0.00 0.00 41 1001.2
20260505182153 24 183 14.5 30.6 0.00 0.00 0.00 40 1001.3
20260505181647 23 187 14.5 29.0 0.00 0.00 0.00 43 1001.4
20260505181141 23 200 16.1 37.0 0.00 0.00 0.00 44 1001.6
20260505180635 23 243 19.3 43.5 0.00 0.00 0.00 44 1001.8
20260505180135 23 285 20.9 43.5 0.00 0.00 0.00 45 1001.6
20260505175635 23 229 20.9 41.8 0.00 0.00 0.00 45 1001.9
20260505175135 23 201 20.9 33.8 0.00 0.00 0.00 44 1001.8
20260505174937 23 272 20.9 40.2 0.00 0.00 0.00 45 1001.8
20260505174133 23 233 17.7 40.2 0.00 0.00 0.00 43 1001.7
20260505173636 23 222 16.1 38.6 0.00 0.00 0.00 47 1001.8
20260505173135 23 231 17.7 38.6 0.00 0.00 0.00 45 1001.6
20260505172932 23 269 17.7 38.6 0.00 0.00 0.00 45 1001.6
20260505172432 23 233 17.7 43.5 0.00 0.00 0.00 46 1001.6
20260505171635 23 186 19.3 43.5 0.00 0.00 0.00 46 1001.8
20260505171135 23 151 20.9 41.8 0.00 0.00 0.00 47 1001.6
20260505170634 23 218 22.5 43.5 0.00 0.00 0.00 47 1001.7
20260505170135 23 176 19.3 43.5 0.00 0.00 0.00 48 1001.6
20260505165635 23 213 20.9 49.9 0.00 0.00 0.00 48 1001.7
20260505165135 23 229 16.1 49.9 0.00 0.00 0.00 46 1001.9
20260505164634 23 238 14.5 37.0 0.00 0.00 0.00 48 1002.0
20260505164132 23 250 16.1 37.0 0.00 0.00 0.00 49 1002.0
20260505163633 23 255 17.7 40.2 0.00 0.00 0.00 49 1002.1
20260505163132 23 219 17.7 40.2 0.00 0.00 0.00 49 1002.1
20260505162632 23 216 16.1 32.2 0.00 0.00 0.00 48 1002.0
20260505162132 22 290 17.7 46.7 0.00 0.00 0.00 49 1002.2
20260505161930 22 203 20.9 46.7 0.00 0.00 0.00 49 1002.5
20260505161133 22 274 22.5 51.5 0.00 0.00 0.00 49 1002.5
20260505160632 22 243 19.3 51.5 0.00 0.00 0.00 49 1002.5
20260505160133 22 224 17.7 38.6 0.00 0.00 0.00 48 1002.6
20260505153230 21 260 17.7 40.2 0.00 0.00 0.00 53 1002.7
20260505153209 22 238 14.5 35.4 0.00 0.00 0.00 51 1002.6
20260505152431 21 215 20.9 45.1 0.00 0.00 0.00 54 1002.8
20260505151630 21 169 22.5 45.1 0.00 0.00 0.00 53 1002.7
20260505151437 21 233 22.5 43.5 0.00 0.00 0.00 54 1002.8
20260505150631 21 213 20.9 43.5 0.00 0.00 0.00 54 1002.8
20260505150130 21 227 19.3 40.2 0.00 0.00 0.00 55 1002.8
20260505140629 19 200 14.5 32.2 0.00 0.00 0.00 58 1002.8